Location: Roanoke
(37.2710°N, 79.9420°W)
Time: 01:04:21
(UTC-05:00)

S-56A Canister/Altair - Pass Details

Date: 21 November 2019
Orbit: 633 x 2499 km, 38.9° (Epoch: 10 December)

Event Time Altitude Azimuth Distance (km) Brightness Sun altitude
Rises 15:02:13 0° 223° (SW) 5,985 13.8 19.3°
Reaches altitude 10° 15:06:37 10° 218° (SW) 4,805 13.9 18.6°
Maximum altitude 15:18:42 47° 150° (SSE) 2,229 10.2 16.9°
Drops below altitude 10° 15:27:06 10° 81° (E) 3,400 10.4 15.7°
Sets 15:29:41 0° 75° (ENE) 4,147 10.7 15.3°
